Radiation Dose at Monitoring Post of Fukushima Daini Nuclear Power Station
Date,Time,MP-1(microSv/h),MP-2(microSv/h),MP-3(microSv/h),MP-4(microSv/h),MP-5(microSv/h),MP-6(microSv/h),MP-7(microSv/h),Wind Direction,Wind Velocity(m/s),Rain
2024/04/13,00:00,0.144,0.125,0.204,0.191,0.202,0.113,0.074,north-northwest,4.3,No
2024/04/13,00:10,0.143,0.125,0.203,0.192,0.205,0.112,0.074,north-northwest,4.5,No
2024/04/13,00:20,0.144,0.124,0.205,0.192,0.203,0.113,0.074,north-northwest,4.4,No
2024/04/13,00:30,0.144,0.124,0.205,0.191,0.203,0.113,0.074,north-northwest,4.0,No
2024/04/13,00:40,0.144,0.124,0.204,0.191,0.204,0.113,0.074,north-northwest,4.8,No
2024/04/13,00:50,0.144,0.125,0.204,0.190,0.203,0.113,0.075,north-northwest,4.8,No
2024/04/13,01:00,0.144,0.124,0.205,0.191,0.203,0.113,0.074,north-northwest,5.0,No
2024/04/13,01:10,0.144,0.124,0.205,0.191,0.204,0.114,0.075,north-northwest,5.8,No
2024/04/13,01:20,0.144,0.125,0.204,0.192,0.204,0.113,0.075,north-northwest,5.8,No
2024/04/13,01:30,0.144,0.124,0.206,0.191,0.204,0.113,0.074,north-northwest,5.4,No
2024/04/13,01:40,0.145,0.124,0.205,0.191,0.204,0.113,0.075,north-northwest,5.9,No
2024/04/13,01:50,0.144,0.125,0.205,0.192,0.203,0.113,0.074,north-northwest,6.1,No
2024/04/13,02:00,0.143,0.124,0.205,0.191,0.203,0.114,0.074,north-northwest,5.7,No
2024/04/13,02:10,0.144,0.124,0.204,0.192,0.202,0.113,0.074,north-northwest,6.2,No
2024/04/13,02:20,0.144,0.125,0.204,0.190,0.204,0.114,0.075,north-northwest,6.4,No
2024/04/13,02:30,0.143,0.124,0.204,0.191,0.204,0.113,0.074,north-northwest,6.4,No
2024/04/13,02:40,0.144,0.125,0.204,0.191,0.203,0.112,0.075,north-northwest,6.5,No
2024/04/13,02:50,0.143,0.124,0.205,0.191,0.203,0.113,0.074,northwest,6.7,No
2024/04/13,03:00,0.144,0.124,0.205,0.191,0.201,0.113,0.075,northwest,6.5,No
2024/04/13,03:10,0.143,0.125,0.205,0.190,0.202,0.112,0.074,northwest,6.2,No
2024/04/13,03:20,0.144,0.124,0.205,0.192,0.205,0.113,0.074,northwest,6.5,No
2024/04/13,03:30,0.144,0.124,0.205,0.191,0.203,0.113,0.074,north-northwest,6.5,No
2024/04/13,03:40,0.143,0.124,0.205,0.190,0.202,0.113,0.074,northwest,6.8,No
2024/04/13,03:50,0.144,0.125,0.204,0.191,0.203,0.113,0.075,northwest,7.7,No
2024/04/13,04:00,0.144,0.125,0.204,0.191,0.204,0.113,0.074,northwest,7.3,No
2024/04/13,04:10,0.144,0.124,0.204,0.191,0.204,0.113,0.074,northwest,7.5,No
2024/04/13,04:20,0.144,0.124,0.205,0.191,0.203,0.113,0.074,north-northwest,7.6,No
2024/04/13,04:30,0.144,0.124,0.204,0.191,0.202,0.113,0.075,north-northwest,7.9,No
2024/04/13,04:40,0.144,0.124,0.203,0.191,0.204,0.113,0.074,northwest,7.4,No
2024/04/13,04:50,0.144,0.124,0.205,0.190,0.202,0.112,0.074,north-northwest,6.9,No
2024/04/13,05:00,0.144,0.125,0.204,0.191,0.203,0.113,0.074,north-northwest,6.8,No
2024/04/13,05:10,0.143,0.125,0.203,0.191,0.204,0.112,0.074,north-northwest,6.7,No
2024/04/13,05:20,0.144,0.124,0.205,0.190,0.204,0.113,0.074,north-northwest,6.3,No
2024/04/13,05:30,0.143,0.125,0.205,0.191,0.204,0.113,0.073,north-northwest,6.4,No
2024/04/13,05:40,0.144,0.125,0.203,0.191,0.203,0.112,0.074,north-northwest,6.6,No
2024/04/13,05:50,0.144,0.124,0.205,0.191,0.204,0.113,0.074,north-northwest,7.0,No
2024/04/13,06:00,0.144,0.125,0.205,0.190,0.204,0.114,0.074,north-northwest,7.3,No
2024/04/13,06:10,0.144,0.124,0.205,0.190,0.201,0.113,0.074,north-northwest,7.0,No
2024/04/13,06:20,0.144,0.124,0.204,0.191,0.203,0.113,0.074,north-northwest,6.9,No
2024/04/13,06:30,0.144,0.125,0.204,0.191,0.203,0.114,0.074,north-northwest,6.8,No
2024/04/13,06:40,0.144,0.125,0.204,0.191,0.203,0.114,0.074,north-northwest,6.9,No
2024/04/13,06:50,0.144,0.124,0.205,0.190,0.203,0.113,0.074,north-northwest,6.9,No
2024/04/13,07:00,0.143,0.125,0.203,0.191,0.202,0.113,0.074,north-northwest,6.2,No
2024/04/13,07:10,0.144,0.125,0.205,0.191,0.204,0.113,0.074,north-northwest,5.8,No
2024/04/13,07:20,0.143,0.124,0.202,0.189,0.202,0.113,0.073,north-northwest,5.5,No
2024/04/13,07:30,0.144,0.125,0.203,0.192,0.204,0.113,0.074,north-northwest,6.0,No
2024/04/13,07:40,0.144,0.123,0.202,0.190,0.203,0.113,0.073,north-northwest,4.0,No
2024/04/13,07:50,0.143,0.125,0.204,0.190,0.204,0.112,0.074,north-northwest,4.6,No
2024/04/13,08:00,0.145,0.124,0.203,0.189,0.204,0.113,0.074,north-northwest,3.9,No
2024/04/13,08:10,0.143,0.125,0.202,0.190,0.202,0.113,0.074,north-northwest,4.0,No
2024/04/13,08:20,0.143,0.124,0.204,0.189,0.204,0.113,0.074,north,4.3,No
2024/04/13,08:30,0.144,0.125,0.203,0.189,0.203,0.112,0.073,north,3.7,No
2024/04/13,08:40,0.143,0.125,0.202,0.191,0.203,0.113,0.075,north,4.0,No
2024/04/13,08:50,0.143,0.125,0.203,0.190,0.203,0.113,0.074,north,4.5,No
2024/04/13,09:00,0.143,0.125,0.204,0.189,0.202,0.113,0.074,north,4.7,No
2024/04/13,09:10,0.143,0.123,0.201,0.190,0.204,0.114,0.074,north-northwest,3.9,No
2024/04/13,09:20,0.144,0.125,0.202,0.189,0.202,0.112,0.074,north,2.9,No
2024/04/13,09:30,0.143,0.125,0.203,0.188,0.203,0.113,0.074,north,4.6,No
2024/04/13,09:40,0.143,0.123,0.204,0.191,0.202,0.113,0.074,north,4.2,No
2024/04/13,09:50,0.144,0.124,0.203,0.190,0.202,0.112,0.074,north,5.3,No
2024/04/13,10:00,0.142,0.124,0.202,0.189,0.203,0.111,0.074,north,5.7,No
2024/04/13,10:10,0.145,0.124,0.204,0.188,0.203,0.113,0.074,north,6.6,No
2024/04/13,10:20,0.144,0.124,0.205,0.192,0.202,0.112,0.075,north-northeast,6.2,No
2024/04/13,10:30,0.144,0.124,0.203,0.190,0.204,0.113,0.074,north-northeast,6.4,No
2024/04/13,10:40,0.143,0.124,0.202,0.189,0.203,0.113,0.073,north-northeast,5.8,No
2024/04/13,10:50,0.143,0.125,0.205,0.192,0.202,0.113,0.075,north-northeast,6.0,No
2024/04/13,11:00,0.145,0.124,0.205,0.191,0.203,0.112,0.074,north-northeast,6.1,No
2024/04/13,11:10,0.143,0.123,0.202,0.190,0.202,0.112,0.074,north-northeast,6.4,No
2024/04/13,11:20,0.143,0.125,0.203,0.190,0.203,0.113,0.075,north-northeast,5.5,No
2024/04/13,11:30,0.143,0.125,0.205,0.191,0.205,0.113,0.074,north,4.4,No
2024/04/13,11:40,0.143,0.124,0.205,0.190,0.202,0.113,0.073,north-northeast,4.8,No
2024/04/13,11:50,0.145,0.125,0.203,0.189,0.202,0.113,0.074,north-northeast,4.1,No
2024/04/13,12:00,0.144,0.124,0.203,0.193,0.205,0.112,0.074,north,3.7,No
2024/04/13,12:10,0.143,0.126,0.206,0.192,0.202,0.113,0.074,north-northeast,5.2,No
2024/04/13,12:20,0.145,0.125,0.205,0.190,0.203,0.112,0.074,north,4.0,No
2024/04/13,12:30,0.143,0.124,0.202,0.191,0.203,0.113,0.075,north-northeast,5.3,No
2024/04/13,12:40,0.143,0.125,0.205,0.192,0.203,0.113,0.073,north-northeast,4.0,No
2024/04/13,12:50,0.144,0.124,0.207,0.191,0.205,0.113,0.075,north-northeast,3.9,No
2024/04/13,13:00,0.144,0.124,0.205,0.192,0.203,0.115,0.075,northeast,3.7,No
2024/04/13,13:10,0.145,0.125,0.204,0.192,0.203,0.113,0.074,northeast,3.3,No
2024/04/13,13:20,0.144,0.124,0.205,0.189,0.205,0.112,0.074,northeast,4.0,No
2024/04/13,13:30,0.144,0.125,0.203,0.192,0.202,0.112,0.074,northeast,4.9,No
2024/04/13,13:40,0.145,0.125,0.205,0.191,0.204,0.114,0.074,northeast,4.5,No
2024/04/13,13:50,0.142,0.123,0.205,0.190,0.204,0.112,0.075,northeast,4.6,No
2024/04/13,14:00,0.144,0.126,0.204,0.191,0.202,0.113,0.074,northeast,3.5,No
2024/04/13,14:10,0.145,0.125,0.205,0.193,0.204,0.113,0.074,north-northeast,4.2,No
2024/04/13,14:20,0.144,0.124,0.206,0.191,0.204,0.114,0.075,northeast,3.5,No
2024/04/13,14:30,0.143,0.125,0.204,0.191,0.202,0.113,0.074,northeast,4.9,No
2024/04/13,14:40,0.144,0.126,0.204,0.193,0.202,0.113,0.074,northeast,3.5,No
2024/04/13,14:50,0.143,0.125,0.206,0.192,0.206,0.113,0.075,east-northeast,2.7,No
2024/04/13,15:00,0.144,0.125,0.205,0.193,0.203,0.112,0.074,east-northeast,2.9,No
2024/04/13,15:10,0.144,0.125,0.206,0.193,0.205,0.113,0.074,northeast,2.2,No
2024/04/13,15:20,0.143,0.125,0.204,0.192,0.205,0.113,0.074,east-northeast,2.7,No
2024/04/13,15:30,0.145,0.125,0.207,0.193,0.202,0.112,0.075,east-northeast,3.5,No
2024/04/13,15:40,0.144,0.125,0.206,0.191,0.206,0.114,0.075,east-northeast,2.5,No
2024/04/13,15:50,0.144,0.125,0.205,0.193,0.203,0.113,0.075,northeast,3.7,No
2024/04/13,16:00,0.145,0.125,0.206,0.193,0.203,0.113,0.075,east-northeast,2.7,No
2024/04/13,16:10,0.144,0.126,0.206,0.192,0.205,0.113,0.075,east-northeast,4.0,No
2024/04/13,16:20,0.144,0.125,0.205,0.193,0.202,0.113,0.074,east-northeast,2.8,No
2024/04/13,16:30,0.144,0.125,0.207,0.193,0.202,0.114,0.073,northeast,2.7,No
2024/04/13,16:40,0.145,0.126,0.206,0.192,0.205,0.113,0.074,east-northeast,1.4,No
2024/04/13,16:50,0.144,0.125,0.206,0.193,0.204,0.113,0.074,east,1.2,No
2024/04/13,17:00,0.146,0.125,0.205,0.192,0.205,0.113,0.074,east-southeast,1.6,No
2024/04/13,17:10,0.144,0.125,0.207,0.193,0.204,0.114,0.074,east,1.3,No
2024/04/13,17:20,0.144,0.126,0.207,0.192,0.204,0.113,0.074,east,1.2,No
2024/04/13,17:30,0.144,0.125,0.206,0.193,0.205,0.113,0.074,east-northeast,1.0,No
2024/04/13,17:40,0.145,0.126,0.207,0.192,0.204,0.113,0.075,southeast,0.7,No
2024/04/13,17:50,0.145,0.125,0.206,0.194,0.205,0.114,0.075,-,CALM,No
2024/04/13,18:00,0.145,0.125,0.207,0.193,0.204,0.113,0.074,south,0.7,No
2024/04/13,18:10,0.144,0.125,0.206,0.193,0.204,0.113,0.074,south,0.8,No
2024/04/13,18:20,0.144,0.125,0.206,0.192,0.204,0.114,0.075,south-southeast,0.7,No
2024/04/13,18:30,0.145,0.126,0.206,0.194,0.206,0.113,0.075,-,CALM,No
2024/04/13,18:40,0.145,0.125,0.205,0.192,0.204,0.113,0.074,south,0.6,No
2024/04/13,18:50,0.144,0.125,0.207,0.194,0.205,0.113,0.075,south,0.8,No
2024/04/13,19:00,0.145,0.125,0.205,0.191,0.205,0.113,0.075,south,0.8,No
2024/04/13,19:10,0.144,0.125,0.206,0.192,0.205,0.113,0.075,-,CALM,No
2024/04/13,19:20,0.144,0.125,0.206,0.192,0.205,0.113,0.074,south-southeast,1.0,No
2024/04/13,19:30,0.145,0.125,0.205,0.192,0.204,0.114,0.074,south,1.0,No
2024/04/13,19:40,0.144,0.126,0.206,0.192,0.206,0.114,0.074,south-southeast,1.4,No
2024/04/13,19:50,0.146,0.126,0.207,0.193,0.204,0.113,0.074,south-southeast,1.3,No
2024/04/13,20:00,0.144,0.125,0.206,0.192,0.204,0.114,0.075,south-southeast,1.2,No
2024/04/13,20:10,0.145,0.125,0.206,0.192,0.205,0.114,0.074,south,1.4,No
2024/04/13,20:20,0.144,0.126,0.207,0.193,0.203,0.114,0.074,south,2.0,No
2024/04/13,20:30,0.144,0.125,0.204,0.192,0.205,0.114,0.074,south,2.2,No
2024/04/13,20:40,0.145,0.126,0.206,0.193,0.205,0.113,0.074,south,1.8,No
2024/04/13,20:50,0.144,0.125,0.206,0.193,0.205,0.113,0.074,south-southwest,2.3,No
2024/04/13,21:00,0.144,0.126,0.207,0.192,0.205,0.114,0.075,south,1.3,No
2024/04/13,21:10,0.145,0.125,0.205,0.192,0.205,0.113,0.075,south,1.1,No
2024/04/13,21:20,0.144,0.125,0.206,0.193,0.205,0.114,0.074,south-southwest,1.0,No
2024/04/13,21:30,0.145,0.126,0.205,0.192,0.204,0.113,0.075,south,1.0,No
2024/04/13,21:40,0.145,0.125,0.206,0.193,0.206,0.113,0.074,south-southwest,1.6,No
2024/04/13,21:50,0.145,0.125,0.207,0.193,0.204,0.113,0.074,south-southwest,1.4,No
2024/04/13,22:00,0.145,0.125,0.206,0.193,0.205,0.113,0.075,south,1.1,No
2024/04/13,22:10,0.145,0.125,0.206,0.194,0.205,0.114,0.075,south,1.8,No
2024/04/13,22:20,0.145,0.126,0.207,0.193,0.204,0.114,0.075,south-southwest,2.0,No
2024/04/13,22:30,0.146,0.126,0.206,0.192,0.206,0.113,0.074,southwest,1.8,No
2024/04/13,22:40,0.144,0.126,0.206,0.195,0.204,0.115,0.074,south-southwest,1.7,No
2024/04/13,22:50,0.146,0.126,0.207,0.193,0.204,0.113,0.074,south,1.5,No
2024/04/13,23:00,0.146,0.125,0.207,0.193,0.205,0.114,0.075,southwest,1.7,No
2024/04/13,23:10,0.145,0.126,0.207,0.193,0.205,0.113,0.075,southwest,1.2,No
2024/04/13,23:20,0.144,0.125,0.207,0.193,0.206,0.114,0.076,southwest,1.0,No
2024/04/13,23:30,0.144,0.125,0.206,0.193,0.204,0.114,0.075,south-southwest,0.7,No
2024/04/13,23:40,0.145,0.126,0.206,0.193,0.204,0.114,0.075,south-southwest,1.2,No
2024/04/13,23:50,0.146,0.125,0.206,0.193,0.205,0.114,0.075,south,0.9,No
